Location: Dattensoll
(49.9928°N, 9.8954°E)
Time: 00:12:56
(UTC+00:00)

USA 234 - Pass Details

Date: 19 May 2025
Orbit: 1097 x 1111 km, 123.0° (Epoch: 19 June)

Event Time Altitude Azimuth Distance (km) Brightness Sun altitude
Rises 20:47:25 0° 57° (ENE) 3,925 6.1 -12.6°
Reaches altitude 10° 20:49:54 10° 58° (ENE) 2,967 5.5 -12.9°
Maximum altitude 20:56:29 81° 146° (SSE) 1,123 3.2 -13.5°
Drops below altitude 10° 21:03:03 10° 234° (SW) 2,966 5.5 -14.0°
Sets 21:05:32 0° 236° (SW) 3,924 6.1 -14.2°
